Rochester, MN
on Wednesday, July 24, 2013

Wednesday
Previous Day Next Day
Daily Summary
 ActualAverageRecord
Temperature
Mean Temperature °F 71°F  
Max Temperature 74°F 81°F 99°F (1934)
Min Temperature 55°F 61°F 45°F (1887)
Degree Days
Heating Degree Days 0 0  
Month to date heating degree days 0 0  
Since 1 June heating degree days 60  
Since 1 July heating degree days 0 0  
Cooling Degree Days 0 6  
Month to date cooling degree days 218 167  
Year to date cooling degree days 374 331  
Since 1 June cooling degree days 344  
Growing Degree Days14 (Base °F )  
Moisture
Dew Point 53°F   
Average Humidity 68    
Maximum Humidity 86    
Minimum Humidity 49    
Precipitation
Precipitation 0.00 in 0.15 in 1.85 in (1985)
Month to date precipitation 1.67 3.56  
Year to date precipitation 32.43 18.68  
Since 1 June precipitation 8.53 8.24  
Snow
Snow 0.00 in 0.00 in 0.00 in (2012)
Month to date snowfall 0.0 0.0  
Since 1 June snowfall 0.0  
Since 1 July snowfall 0.0 0.0  
Snow Depth 0.00 in   
Wind
Wind Speed 4 mph   
Max Wind Speed 8 mph   
Max Gust Speed 14 mph   
Visibility 10 miles   
Events Rain   

Key: T is trace of precipitation, MM is missing value
Source: NWS Daily Summary
Time(CDT)TemperatureDew PointHumidity Pressure Visibility Wind DirectionWind SpeedGust SpeedPrecipitationEvents Conditions
12:54 AM 62.1°F 53.1°F 72% 30.04 in 10.0 miles Calm Calm - N/A   Mostly Cloudy
1:54 AM 57.9°F 53.1°F 84% 30.04 in 10.0 miles NE 4.6 mph - N/A   Partly Cloudy
2:54 AM 57.9°F 51.1°F 78% 30.06 in 10.0 miles ENE 4.6 mph - N/A   Scattered Clouds
3:54 AM 57.9°F 50.0°F 75% 30.06 in 10.0 miles ENE 3.5 mph - N/A   Partly Cloudy
4:54 AM 57.0°F 48.9°F 74% 30.07 in 10.0 miles ESE 4.6 mph - N/A   Clear
5:54 AM 55.9°F 48.9°F 77% 30.07 in 10.0 miles SE 4.6 mph - N/A   Clear
6:54 AM 57.0°F 51.1°F 81% 30.09 in 10.0 miles Calm Calm - N/A   Partly Cloudy
7:54 AM 59.0°F 52.0°F 78% 30.10 in 10.0 miles Calm Calm - N/A   Partly Cloudy
8:54 AM 59.0°F 53.1°F 81% 30.11 in 10.0 miles SE 3.5 mph - N/A   Clear
9:54 AM 63.0°F 55.0°F 75% 30.11 in 10.0 miles Calm Calm - N/A   Clear
10:54 AM 66.0°F 55.0°F 68% 30.11 in 10.0 miles East 3.5 mph - N/A   Mostly Cloudy
11:54 AM 71.1°F 55.0°F 57% 30.08 in 10.0 miles WNW 4.6 mph - N/A   Partly Cloudy
12:54 PM 72.0°F 52.0°F 49% 30.08 in 10.0 miles North 4.6 mph - N/A   Overcast
1:54 PM 71.1°F 53.1°F 53% 30.07 in 10.0 miles NNW 6.9 mph - N/A   Overcast
2:54 PM 72.0°F 55.0°F 55% 30.07 in 10.0 miles North 6.9 mph - N/A   Overcast
3:54 PM 72.0°F 53.1°F 51% 30.06 in 10.0 miles ENE 3.5 mph - N/A   Overcast
4:54 PM 73.0°F 54.0°F 51% 30.04 in 10.0 miles Calm Calm - N/A   Mostly Cloudy
5:54 PM 73.0°F 54.0°F 51% 30.03 in 10.0 miles Calm Calm - 0.00 in Rain Light Rain
6:54 PM 70.0°F 55.9°F 61% 30.03 in 10.0 miles ESE 5.8 mph - N/A   Overcast
7:54 PM 68.0°F 55.9°F 65% 30.02 in 10.0 miles SE 6.9 mph - N/A   Overcast
8:54 PM 66.9°F 55.9°F 68% 30.03 in 10.0 miles ESE 4.6 mph - N/A   Overcast
9:54 PM 66.0°F 55.0°F 68% 30.03 in 10.0 miles South 8.1 mph - N/A   Partly Cloudy
10:54 PM 63.0°F 55.0°F 75% 30.04 in 10.0 miles SSE 6.9 mph - N/A   Clear
11:54 PM 62.1°F 55.0°F 78% 30.04 in 10.0 miles South 5.8 mph - N/A   Clear
Astronomy
Sunrise:05:50 AM (CDT) Moon Rise:09:40 PM (CDT)7/24
Sunset:08:42 PM (CDT) Moon Set:08:17 AM (CDT)7/24
Moon Phase
Jul. 24 Jul. 29 Aug. 06 Aug. 14 Aug. 20

Copyright © 2015 The Weather Underground, Inc.